[TLELIST] Archives

 

[TLELIST] Current TLEs

March 1st 2023 PDT

HST 1 20580U 90037B 23059.87284911 .00005854 00000-0 32055-3 0 9993 2 20580 28.4690 268.1713 0002250 298.1621 146.9113 15.12126904605043 ISS (ZARYA) 1 25544U 98067A 23060.20169737 .00031645 00000-0 56934-3 0 9995 2 25544 51.6397 143.4285 0005961 40.9898 64.9091 15.49527717385046 CXO 1 25867U 99040B 23059.54655648 .00000782 00000-0 00000-0 0 9999 2 25867 39.0220 210.2637 9021766 251.6344 0.2003 0.37809191 12773 ...Continue Reading

[TLELIST] Current TLEs

February 28th 2023 PDT

HST 1 20580U 90037B 23059.29214457 .00007391 00000-0 40743-3 0 9998 2 20580 28.4688 272.0287 0002212 289.5476 228.0966 15.12122884605221 ISS (ZARYA) 1 25544U 98067A 23059.42649794 .00020820 00000-0 37893-3 0 9999 2 25544 51.6397 147.2641 0005146 32.2811 66.5136 15.49451328384926 CXO 1 25867U 99040B 23059.54655648 .00000782 00000-0 00000-0 0 9999 2 25867 39.0220 210.2637 9021766 251.6344 0.2003 0.37809191 12773 ...Continue Reading

[TLELIST] Current TLEs

February 28th 2023 PDT

HST 1 20580U 90037B 23059.29214457 .00007391 00000-0 40743-3 0 9998 2 20580 28.4688 272.0287 0002212 289.5476 228.0966 15.12122884605221 ISS (ZARYA) 1 25544U 98067A 23059.42649794 .00020820 00000-0 37893-3 0 9999 2 25544 51.6397 147.2641 0005146 32.2811 66.5136 15.49451328384926 CXO 1 25867U 99040B 23059.54655648 .00000782 00000-0 00000-0 0 9999 2 25867 39.0220 210.2637 9021766 251.6344 0.2003 0.37809191 12773 ...Continue Reading

[TLELIST] Current TLEs

February 28th 2023 PDT

HST 1 20580U 90037B 23059.29214457 .00007391 00000-0 40743-3 0 9998 2 20580 28.4688 272.0287 0002212 289.5476 228.0966 15.12122884605221 ISS (ZARYA) 1 25544U 98067A 23059.42649794 .00020820 00000-0 37893-3 0 9999 2 25544 51.6397 147.2641 0005146 32.2811 66.5136 15.49451328384926 CXO 1 25867U 99040B 23059.54655648 .00000782 00000-0 00000-0 0 9999 2 25867 39.0220 210.2637 9021766 251.6344 0.2003 0.37809191 12773 ...Continue Reading

[TLELIST] Current TLEs

February 27th 2023 PDT

HST 1 20580U 90037B 23057.89160873 .00005109 00000-0 27865-3 0 9999 2 20580 28.4692 281.3310 0002189 271.7928 166.7402 15.12101971604747 ISS (ZARYA) 1 25544U 98067A 23058.33153021 .00017222 00000-0 31564-3 0 9992 2 25544 51.6390 152.6823 0005553 33.7359 73.3155 15.49389973384750 CXO 1 25867U 99040B 23056.90394271 .00000669 00000-0 00000+0 0 9991 2 25867 39.0724 210.5931 9019913 251.3645 0.4870 0.37809176 23919 ...Continue Reading

[TLELIST] Current TLEs

February 27th 2023 PDT

HST 1 20580U 90037B 23057.89160873 .00005109 00000-0 27865-3 0 9999 2 20580 28.4692 281.3310 0002189 271.7928 166.7402 15.12101971604747 ISS (ZARYA) 1 25544U 98067A 23058.33153021 .00017222 00000-0 31564-3 0 9992 2 25544 51.6390 152.6823 0005553 33.7359 73.3155 15.49389973384750 CXO 1 25867U 99040B 23056.90394271 .00000669 00000-0 00000+0 0 9991 2 25867 39.0724 210.5931 9019913 251.3645 0.4870 0.37809176 23919 ...Continue Reading

[TLELIST] Current TLEs

February 26th 2023 PDT

HST 1 20580U 90037B 23057.04684146 .00005085 00000-0 27732-3 0 9996 2 20580 28.4694 286.9417 0002193 261.5486 249.3148 15.12094232604880 ISS (ZARYA) 1 25544U 98067A 23057.36772830 .00017620 00000-0 32312-3 0 9993 2 25544 51.6390 157.4550 0005497 32.0781 95.5839 15.49356794384602 CXO 1 25867U 99040B 23056.90394271 .00000669 00000-0 00000+0 0 9991 2 25867 39.0724 210.5931 9019913 251.3645 0.4870 0.37809176 23919 ...Continue Reading

[TLELIST] Current TLEs

February 26th 2023 PDT

HST 1 20580U 90037B 23057.04684146 .00005085 00000-0 27732-3 0 9996 2 20580 28.4694 286.9417 0002193 261.5486 249.3148 15.12094232604880 ISS (ZARYA) 1 25544U 98067A 23057.36772830 .00017620 00000-0 32312-3 0 9993 2 25544 51.6390 157.4550 0005497 32.0781 95.5839 15.49356794384602 CXO 1 25867U 99040B 23056.90394271 .00000669 00000-0 00000+0 0 9991 2 25867 39.0724 210.5931 9019913 251.3645 0.4870 0.37809176 23919 ...Continue Reading

[TLELIST] Current TLEs

February 25th 2023 PDT

HST 1 20580U 90037B 23055.96658531 .00004373 00000-0 23715-3 0 9990 2 20580 28.4698 294.1177 0002198 252.1429 126.6395 15.12082321604456 ISS (ZARYA) 1 25544U 98067A 23056.39727578 .00024502 00000-0 44615-3 0 9990 2 25544 51.6395 162.2594 0005553 31.0555 80.2188 15.49330183384455 CXO 1 25867U 99040B 23056.90394271 .00000669 00000-0 00000+0 0 9991 2 25867 39.0724 210.5931 9019913 251.3645 0.4870 0.37809176 23919 ...Continue Reading

[TLELIST] Current TLEs

February 25th 2023 PDT

HST 1 20580U 90037B 23055.96658531 .00004373 00000-0 23715-3 0 9990 2 20580 28.4698 294.1177 0002198 252.1429 126.6395 15.12082321604456 ISS (ZARYA) 1 25544U 98067A 23056.39727578 .00024502 00000-0 44615-3 0 9990 2 25544 51.6395 162.2594 0005553 31.0555 80.2188 15.49330183384455 CXO 1 25867U 99040B 23056.90394271 .00000669 00000-0 00000+0 0 9991 2 25867 39.0724 210.5931 9019913 251.3645 0.4870 0.37809176 23919 ...Continue Reading
  • This mailing list is a public mailing list - anyone may join or leave, at any time.
  • This mailing list is announce-only.

International Space Station (ISS) / Hubble Space Telescope (HST) / Chandra X-Ray Observatory Orbital Data via EMAIL

Privacy Policy:

Private list